Theta_e
345 340 339 339 339 339 343 345 350 353 355 355 355 357 357 355 352 351 349 348 353 348
340 345 342 343 343 344 348 351 351 351 353 355 354 353 354 348 351 349 348 349 349 347
348 349 348 344 343 350 351 350 348 350 350 349 349 350 348 347 345 342 342 346 347 346
348 347 346 347 349 352 350 349 349 347 346 346 347 346 347 343 344 343 343 343 345 344
347 346 346 347 348 350 347 348 347 346 345 345 345 346 345 345 345 342 341 341 342 339
346 344 342 344 346 347 347 347 345 343 342 342 342 342 342 342 338 337 337 336 335 334
345 345 344 344 344 344 345 343 341 339 338 336 334 334 335 335 332 329 329 327 325 325
343 343 341 340 339 339 342 341 339 337 334 332 329 326 329 328 326 325 324 325 323 322
340 339 337 335 334 334 333 335 336 333 331 329 324 322 321 322 320 319 319 317 319 318
337 336 334 332 330 329 328 329 328 326 327 326 325 321 319 317 317 317 317 317 317 314
336 333 331 329 326 326 326 325 325 323 324 325 325 320 319 316 319 318 317 317 317 316
335 332 328 325 324 323 324 323 323 325 323 323 323 316 319 318 320 319 317 317 317 315
333 329 325 324 323 322 322 322 322 323 324 313 321 313 317 319 320 318 315 317 316 311
329 325 323 323 322 322 322 323 322 320 319 318 314 319 313 312 319 315 313 312 311 312
Wind_Speed
11 5 4 3 1 1 4 4 8 8 9 8 8 5 3 3 2 3 5 5 5 4
8 3 2 3 2 1 3 4 6 5 4 5 5 4 2 3 1 1 4 5 2 3
5 5 2 4 2 4 3 2 3 4 6 5 5 4 4 3 2 1 3 4 3 2
5 4 4 1 2 3 4 4 5 5 5 6 6 4 5 4 4 3 3 3 4 2
8 8 8 7 6 5 5 5 4 5 6 6 6 6 6 6 7 7 7 7 7 10
11 10 9 8 7 6 5 5 6 7 8 8 7 7 7 7 7 8 8 7 7 8
12 11 10 9 8 7 7 7 8 8 8 8 8 8 7 7 7 7 8 8 9 9
10 10 9 8 7 7 7 7 6 6 6 6 5 4 5 6 6 6 7 8 7 9
9 9 8 7 6 6 6 6 6 5 5 6 5 8 9 6 7 7 7 7 6 6
9 8 7 7 6 6 5 5 5 5 5 5 6 7 8 7 6 5 5 5 4 4
8 7 8 6 6 6 4 4 3 4 4 3 4 5 6 5 4 4 4 3 3 4
9 8 8 6 5 5 3 4 3 2 2 3 3 2 5 4 3 2 2 1 0 5
7 8 7 6 5 4 4 3 0 1 1 3 3 7 3 6 2 3 3 3 4 2
8 7 6 7 5 4 4 2 2 3 3 2 4 2 3 2 2 3 4 5 5 6
Wind_Direction
201 150 210 207 176 357 259 288 297 305 281 281 289 310 303 276 304 292 256 259 221 232
236 112 213 132 33 200 278 300 354 342 345 352 37 35 48 81 221 307 331 300 289 287
228 263 247 124 253 259 206 94 25 38 48 58 61 73 90 106 110 35 291 310 313 71
196 196 159 112 161 111 100 83 81 70 68 61 67 69 82 77 57 21 342 306 326 355
110 121 128 135 114 102 105 106 106 95 86 74 62 64 65 62 55 49 44 35 26 26
131 128 128 122 116 112 116 115 97 86 74 73 71 74 71 73 74 65 58 55 55 47
138 132 120 117 120 121 114 102 91 84 80 78 76 70 72 79 82 79 75 70 64 59
112 111 115 112 103 90 92 97 98 96 93 88 78 70 87 87 87 88 83 72 71 68
117 118 116 111 105 97 94 86 90 89 88 81 73 75 78 80 82 75 73 78 82 86
142 139 124 116 107 96 84 92 84 75 82 93 93 101 101 104 99 96 82 71 60 27
149 133 113 105 100 96 93 80 76 74 78 105 116 133 125 115 108 108 105 92 66 15
148 128 120 122 109 94 106 83 88 88 55 57 113 20 177 204 193 161 163 163 321 342
120 114 126 121 111 104 103 103 222 231 141 55 62 29 215 208 244 244 283 264 308 191
113 126 126 113 118 127 121 132 133 121 116 62 13 11 118 169 253 301 300 313 320 327